EHI
0 0 0 0 0 0 0 0 0 0 0 0 0 0 0 0 0 0 0 0 0 0 0 0 0 0 0 0 0 0 0 0 0 0 0 0 0 0 0 0 0 0 0
0 0 0 0 0 0 0 0 0 0 0 0 0 0 0 0 0 0 0 0 0 0 0 0 0 0 0 0 0 0 0 0 0 0 0 0 0 0 0 0 0 0 0
0 0 0 0 0 0 0 0 0 0 0 0 0 0 0 0 0 0 0 0 0 0 0 0 0 0 0 0 0 0 0 0 0 0 0 0 0 0 0 0 0 0 0
0 0 0 0 0 0 0 0 0 0 0 0 0 0 0 0 0 0 0 0 0 0 0 0 0 0 0 0 0 0 0 0 0 0 0 0 0 0 0 0 0 0 0
0 0 0 0 0 0 0 0 0 0 0 0 0 0 0 0 0 0 0 0 0 0 0 0 0 0 0 0 0 0 0 0 0 0 0 0 0 0 0 0 0 0 0
0 0 0 0 0 0 0 0 0 0 0 0 0 0 0 0 0 0 0 0 0 0 0 0 0 0 0 0 0 0 0 0 0 0 0 0 0 0 0 0 0 0 0
0 0 0 0 0 0 0 0 0 0 0 0 0 0 0 0 0 0 0 0 0 0 0 0 0 0 0 0 0 0 0 0 0 0 0 0 0 0 0 0 0 0 0
0 0 0 0 0 0 0 0 0 0 0 0 0 0 0 0 0 0 0 0 0 0 0 0 0 0 0 0 0 0 0 0 0 0 0 0 0 0 0 0 0 0 0
0 0 0 0 0 0 0 0 0 0 0 0 0 0 0 0 0 0 0 0 0 0 0 0 0 0 0 0 0 0 0 0 0 0 0 0 0 0 0 0 0 0 0
0 0 0 0 0 0 0 0 0 0 0 0 0 0 0 0 0 0 0 0 0 0 0 0 0 0 0 0 0 0 0 0 0 0 0 0 0 0 0 0 0 0 0
0 0 0 0 0 0 0 0 0 0 0 0 0 0 0 0 0 0 0 0 0 0 0 0 0 0 0 0 0 0 0 0 0 0 0 0 0 0 0 0 0 0 0
0 0 0 0 0 0 0 0 0 0 0 0 0 0 0 0 0 0 0 0 0 0 0 0 0 0 0 0 0 0 0 0 0 0 0 0 0 0 0 0 0 0 0
0 0 0 0 0 0 0 0 0 0 0 0 0 0 0 0 0 0 0 0 0 0 0 0 0 0 0 0 0 0 0 0 0 0 0 0 0 0 0 0 0 0 0
0 0 0 0 0 0 0 0 0 0 0 0 0 0 0 0 0 0 0 0 0 0 0 0 0 0 0 0 0 0 0 0 0 0 0 0 0 0 0 0 0 0 0
0 0 0 0 0 0 0 0 0 0 0 0 0 0 0 0 0 0 0 0 0 0 0 0 0 0 0 0 0 0 0 0 0 0 0 0 0 0 0 0 0 0 0
0 0 0 0 0 0 0 0 0 0 0 0 0 0 0 0 0 0 0 0 0 0 0 0 0 0 0 0 0 0 0 0 0 0 0 0 0 0 0 0 0 0 0
0 0 0 0 0 0 0 0 0 0 0 0 0 0 0 0 0 0 0 0 0 0 0 0 0 0 0 0 0 0 0 0 0 0 0 0 0 0 0 0 0 0 0
0 0 0 0 0 0 0 0 0 0 0 0 0 0 0 0 0 0 0 0 0 0 0 0 0 0 0 0 0 0 0 0 0 0 0 0 0 0 0 0 0 0 0
0 0 0 0 0 0 0 0 0 0 0 0 0 0 0 0 0 0 0 0 0 0 0 0 0 0 0 0 0 0 0 0 0 0 0 0 0 0 0 0 0 0 0
0 0 0 0 0 0 0 0 0 0 0 0 0 0 0 0 0 0 0 0 0 0 0 0 0 0 0 0 0 0 0 0 0 0 0 0 0 0 0 0 0 0 0
0 0 0 0 0 0 0 0 0 0 0 0 0 0 0 0 0 0 0 0 0 0 0 0 0 0 0 0 0 0 0 0 0 0 0 0 0 0 0 0 0 0 0
0 0 0 0 0 0 0 0 0 0 0 0 0 0 0 0 0 0 0 0 0 0 0 0 0 0 0 0 0 0 0 0 0 0 0 0 0 0 0 0 0 0 0
0 0 0 0 0 0 0 0 0 0 0 0 0 0 0 0 0 0 0 0 0 0 0 0 0 0 0 0 0 0 0 0 0 0 0 0 0 0 0 0 0 0 0
0 0 0 0 0 0 0 0 0 0 0 0 0 0 0 0 0 0 0 0 0 0 0 0 0 0 0 0 0 0 0 0 0 0 0 0 0 0 0 0 0 0 0
0 0 0 0 0 0 0 0 0 0 0 0 0 0 0 0 0 0 0 0 0 0 0 0 0 0 0 0 0 0 0 0 0 0 0 0 0 0 0 0 0 0 0
0 0 0 0 0 0 0 0 0 0 0 0 0 0 0 0 0 0 0 0 0 0 0 0 0 0 0 0 0 0 0 0 0 0 0 0 0 0 0 0 0 0 0
Wind_Speed
10 12 14 13 12 11 11 11 11 10 10 10 11 11 11 11 11 12 12 12 12 13 13 14 14 14 15 15 15 15 15 16 15 15 15 15 15 15 15 14 12 11 15
13 14 15 14 13 12 12 12 11 11 10 10 10 11 11 11 11 11 11 12 12 12 13 13 13 13 14 14 14 14 14 14 14 13 11 12 13 14 14 14 13 10 14
14 14 15 13 13 13 13 12 12 11 10 10 10 10 10 10 10 11 11 11 11 12 12 12 12 12 12 12 13 13 13 13 12 10 8 8 10 13 12 12 12 12 12
14 13 13 14 14 13 13 12 12 11 10 10 10 9 9 10 10 10 10 10 11 11 11 11 11 11 11 11 11 12 12 12 10 7 7 8 8 11 11 11 11 11 11
13 12 13 14 14 14 13 13 12 11 10 10 9 9 9 9 10 10 10 10 10 10 10 10 10 10 10 10 10 10 10 10 7 7 7 7 7 9 9 10 10 9 9
14 13 14 14 14 14 13 13 12 12 11 10 9 9 9 9 9 9 9 9 9 9 9 9 9 9 9 9 9 10 9 7 4 6 6 6 7 8 8 8 8 8 8
14 12 14 14 14 14 13 13 12 11 11 10 9 9 9 9 9 8 8 7 7 8 8 8 8 8 8 8 8 8 8 6 5 5 5 6 7 8 7 8 8 8 8
13 12 13 14 13 14 13 13 12 11 11 10 9 9 8 8 8 7 7 6 6 7 7 7 7 7 7 7 7 7 7 6 3 4 5 5 8 7 7 7 7 7 8
13 12 12 13 13 14 13 13 13 12 11 11 10 9 8 8 7 7 6 6 6 6 6 6 6 6 6 6 6 6 6 5 4 4 4 4 7 7 7 6 7 7 7
12 12 12 12 12 12 12 12 12 11 11 10 9 8 8 7 7 6 6 6 6 5 5 5 5 6 6 6 6 5 3 4 3 3 2 4 7 7 6 6 6 7 7
12 12 12 12 11 11 10 11 11 11 10 10 9 9 7 6 6 6 5 5 5 4 4 4 5 5 3 4 4 3 3 2 3 3 3 6 7 6 5 5 6 6 7
16 15 12 13 12 11 9 10 9 9 9 9 8 9 7 5 4 4 7 4 4 4 4 4 3 1 2 1 2 2 1 2 2 2 3 6 6 5 5 5 5 6 7
16 15 14 13 12 12 9 8 6 6 7 8 8 8 6 5 4 4 4 5 4 3 2 2 2 0 1 2 2 2 3 3 2 1 2 5 6 5 5 5 6 6 7
15 16 15 14 13 13 10 8 8 6 6 6 7 9 6 4 4 4 3 3 3 2 1 1 1 1 1 1 2 2 2 2 2 2 2 4 5 5 5 5 5 6 6
15 16 16 16 15 13 11 8 8 8 7 8 7 8 8 5 5 5 4 3 3 2 2 2 2 1 1 2 2 3 3 3 2 2 1 3 4 5 4 5 5 6 6
16 16 16 17 16 14 12 10 9 8 8 8 7 9 9 6 6 5 5 4 3 3 2 2 2 2 2 2 2 3 3 3 2 2 1 1 2 4 4 4 5 5 6
16 16 16 16 16 16 14 13 9 9 9 8 8 9 10 8 7 6 5 5 4 4 4 3 3 2 2 2 3 3 3 3 3 2 2 1 1 1 2 4 4 5 6
14 15 16 13 16 17 14 13 10 9 9 8 8 8 11 10 9 7 6 6 5 4 4 4 3 3 3 3 3 2 3 2 4 3 3 2 2 1 1 1 3 4 5
15 15 16 16 17 16 15 12 11 9 10 8 8 8 10 11 10 8 6 6 6 5 5 4 4 4 4 3 3 3 3 3 3 4 4 4 3 2 2 1 1 3 5
14 15 15 16 16 15 12 10 9 10 9 9 9 9 11 10 11 10 7 8 7 6 6 6 6 5 4 3 3 4 4 4 4 5 5 4 4 4 4 3 3 2 4
13 14 15 16 16 13 11 11 10 10 9 9 9 11 12 11 12 11 8 8 8 7 8 8 6 6 5 3 4 4 5 6 6 5 5 5 5 5 5 4 4 3 3
13 14 15 16 15 15 12 11 10 9 8 9 8 10 12 12 12 10 11 9 9 7 8 8 7 5 4 4 4 4 4 5 6 6 6 6 6 5 6 6 5 5 4
13 14 13 15 15 16 15 10 8 7 6 7 9 9 12 13 13 12 12 10 10 9 8 9 9 9 6 5 5 5 5 4 2 4 7 6 7 6 6 6 7 6 6
11 11 13 13 14 15 15 13 14 11 11 11 9 9 11 13 13 13 12 12 11 9 9 9 9 8 8 6 5 5 6 5 5 4 4 6 7 7 8 6 7 7 7
10 10 11 12 13 14 15 15 15 13 11 9 9 11 11 11 12 13 12 11 11 9 10 10 9 10 8 8 6 5 6 5 7 6 7 5 5 6 6 7 6 6 7
8 9 10 12 13 14 15 15 16 16 13 12 12 10 9 8 9 12 12 11 11 10 11 10 10 11 9 9 7 6 5 5 6 7 8 8 7 5 6 6 7 7 6
Wind_Direction
162 160 159 158 150 147 140 130 123 116 107 101 99 95 92 87 83 79 76 73 70 68 67 66 65 64 62 62 61 61 59 57 54 51 49 52 54 55 52 45 41 51 47
153 157 157 158 154 149 141 133 126 120 112 106 102 97 94 92 88 83 80 76 73 69 67 66 65 64 63 63 63 62 61 59 54 50 50 58 55 53 53 50 45 47 47
152 155 159 161 158 151 142 136 130 126 119 113 107 104 100 97 93 88 84 79 76 73 70 68 66 66 64 65 65 63 62 59 53 48 49 55 57 52 50 49 48 47 44
153 158 160 156 158 152 146 142 137 132 127 122 117 113 108 102 98 93 87 83 79 75 72 70 68 68 67 66 65 64 62 58 49 36 49 47 50 47 46 45 43 42 40
156 160 150 158 160 156 152 148 144 138 134 129 124 121 114 108 104 97 91 86 84 80 76 73 71 69 66 65 65 64 61 56 46 47 51 44 44 40 40 41 38 36 33
159 161 153 165 162 159 156 153 149 144 141 134 130 126 120 114 107 101 95 90 86 83 80 77 74 70 67 66 65 63 57 44 32 52 46 39 37 35 31 34 33 30 26
161 162 158 169 166 162 158 157 153 151 146 140 135 131 126 119 112 108 101 94 90 86 83 80 75 72 68 64 62 60 53 30 28 48 41 36 28 19 24 22 21 21 21
162 165 160 168 169 165 162 160 158 157 154 149 144 139 132 126 121 115 110 103 96 91 86 80 76 69 66 63 60 58 48 12 29 40 35 34 17 7 17 15 11 12 13
166 170 169 171 171 169 167 166 165 165 163 158 152 145 138 133 127 120 114 108 101 95 88 80 73 67 62 58 56 54 47 359 353 33 23 24 5 359 9 9 8 7 9
174 178 176 177 175 174 172 169 169 169 168 163 154 144 137 137 134 125 130 113 106 99 88 77 69 63 58 51 50 50 27 286 14 19 13 21 353 353 3 6 8 6 5
185 186 185 182 180 180 176 166 172 172 170 166 160 146 163 169 155 150 112 114 113 103 90 77 68 61 59 78 59 34 281 339 10 3 10 3 340 348 358 3 3 3 4
190 191 189 188 184 182 177 176 183 181 177 188 180 173 182 174 156 144 120 121 117 108 104 79 68 99 279 51 105 240 315 343 344 3 24 354 339 345 356 3 6 5 5
191 190 194 192 188 185 183 186 184 184 184 192 191 184 181 176 167 178 169 163 165 174 169 140 207 293 337 358 331 335 343 335 338 355 34 2 344 346 355 7 10 5 3
193 194 195 194 192 192 190 189 191 189 188 190 192 192 188 188 192 185 197 186 190 191 189 226 282 312 309 310 316 324 327 321 327 339 35 9 350 349 357 4 5 3 1
198 196 196 196 195 195 195 195 197 197 193 192 193 197 197 197 198 192 200 197 204 206 210 229 249 273 288 310 316 311 311 312 310 308 63 39 356 350 357 358 359 359 357
202 199 196 197 198 197 197 198 200 200 196 197 194 199 201 204 203 199 203 203 206 213 227 238 250 266 281 292 297 298 299 296 284 278 277 129 38 357 358 1 360 357 353
205 200 197 198 199 200 202 203 203 201 199 200 199 200 201 206 206 204 209 207 208 210 216 228 235 254 267 270 274 287 290 288 276 260 242 239 173 81 12 353 350 348 343
206 201 197 195 200 202 203 203 203 204 203 202 200 201 203 205 206 206 211 214 208 208 216 223 232 241 247 259 273 277 268 258 257 252 230 220 227 221 148 2 334 333 329
207 201 197 197 201 201 203 205 205 204 205 206 202 203 204 206 205 206 213 215 208 211 217 220 232 245 253 260 272 273 266 253 246 234 226 218 219 230 240 180 274 311 317
207 203 200 198 201 199 200 204 205 208 209 208 206 208 205 205 205 208 212 214 209 210 215 218 225 234 253 262 267 264 260 250 240 234 231 223 220 226 241 251 248 250 284
201 202 200 199 199 195 194 197 200 205 206 208 210 211 208 208 207 209 210 212 210 215 218 221 223 229 234 239 252 257 245 237 237 230 231 231 226 230 239 246 259 273 262
199 199 200 200 197 196 197 197 202 203 207 210 208 213 213 211 209 209 213 212 210 216 219 219 217 228 227 217 243 266 263 234 219 224 228 234 238 233 239 244 253 259 269
199 200 199 199 197 197 197 194 190 193 199 204 209 210 213 212 211 210 213 215 213 214 218 217 213 219 227 218 228 247 264 272 274 214 228 233 237 239 243 244 247 250 255
201 198 200 198 197 196 194 195 195 199 205 209 207 208 210 211 213 213 214 216 216 217 220 219 216 219 228 228 215 233 252 276 272 272 224 229 238 245 248 246 248 249 250
197 193 197 196 196 195 197 199 203 210 215 213 208 210 211 210 212 212 214 215 218 218 221 219 216 217 220 228 221 213 226 240 248 259 269 257 242 239 244 249 250 250 251
192 190 193 194 197 196 198 202 206 211 212 210 209 209 211 209 210 213 213 215 218 219 220 220 218 217 220 226 226 220 217 219 223 234 254 265 266 257 248 247 248 246 248